Weather History for Gainesville, FL

Change the Weather History Date:

Monday, November 18, 2013

  Actual Average Record
Temperature  
Mean Temperature 71 °F 62 °F  
Max Temperature 75 °F 74 °F 88 °F (1957)
Min Temperature 66 °F 50 °F 29 °F (1970)
Degree Days  
Heating Degree Days 0 5  
Month to date heating degree days 16 63  
Since 1 July heating degree days 31 90  
Cooling Degree Days 6 2  
Month to date cooling degree days 66 49  
Year to date cooling degree days 2807 2599  
Growing Degree Days 24 (Base 50)    
Moisture  
Dew Point 67 °F    
Average Humidity 87    
Maximum Humidity 100    
Minimum Humidity 74    
Precipitation  
Precipitation T in 0.06 in 0.99 in (1915)
Month to date precipitation 1.55 1.25  
Year to date precipitation 41.53 44.12  
Snow  
Snow 0.00 in 0.00 in 0.00 in ()
Month to date snowfall 0.0 0.0  
Since 1 July snowfall 0.0 0.0  
Since 1 September snowfall 0.0 0.0  
Snow Depth 0.00 in    
Sea Level Pressure  
Sea Level Pressure 30.00 in    
Wind  
Wind Speed 4 mph (WSW)    
Max Wind Speed 8 mph    
Max Gust Speed -    
Visibility 5 miles    
Events      
T = Trace of Precipitation, MM = Missing Value Source: NWS Daily Summary

Daily Weather History Graph

Daily Weather History Graph

Search for Another Location

Airport:

Trip Planner

Search our weather history database for the weather conditions in past years. The results will help you decide how hot, cold, wet, or windy it might be!

Date:

Astronomy

Nov. 18, 2013 Rise Set
Actual Time 6:56 AM EST 5:32 PM EST
Civil Twilight 6:30 AM EST 5:57 PM EST
Nautical Twilight 6:01 AM EST 6:26 PM EST
Astronomical Twilight 5:33 AM EST 6:54 PM EST
Moon 6:34 PM EST (11/18) 7:43 AM EST (11/18)
Length of Visible Light 11h 26m
Length of Day
10h 35m
Full, 99% of the Moon is Illuminated
Nov 18
Full
Nov 25
Last Quarter
Dec 2
New
Dec 9
First Quarter
Dec 17
Full

Hourly Weather History & Observations

Time (EST) Temp. Heat Index Dew Point Humidity Pressure Visibility Wind Dir Wind Speed Gust Speed Precip Events Conditions
12:04 AM 71.6 °F - 66.2 °F 83% 30.05 in 0.2 mi Calm Calm - N/A   Haze
12:13 AM 71.6 °F - 66.2 °F 83% 30.04 in 0.2 mi Calm Calm - N/A   Haze
12:29 AM 71.6 °F - 66.2 °F 83% 30.04 in 0.5 mi Calm Calm - N/A   Haze
12:44 AM 69.8 °F - 64.4 °F 83% 30.04 in 0.2 mi Calm Calm - N/A   Haze
12:53 AM 71.1 °F - 64.9 °F 81% 30.03 in 0.2 mi Calm Calm - N/A   Haze
1:01 AM 71.6 °F - 64.4 °F 78% 30.04 in 1.0 mi Calm Calm - N/A   Haze
1:05 AM 71.6 °F - 64.4 °F 78% 30.04 in 3.0 mi Calm Calm - N/A   Haze
1:19 AM 71.6 °F - 66.2 °F 83% 30.03 in 8.0 mi Calm Calm - N/A   Mostly Cloudy
1:53 AM 72.0 °F - 66.0 °F 81% 30.02 in 9.0 mi WSW 3.5 mph - N/A   Clear
2:53 AM 71.1 °F - 64.0 °F 78% 30.01 in 9.0 mi Calm Calm - N/A   Scattered Clouds
3:10 AM 69.8 °F - 64.4 °F 83% 30.01 in 2.5 mi Calm Calm - N/A   Haze
3:29 AM 71.6 °F - 64.4 °F 78% 30.01 in 1.0 mi Calm Calm - N/A   Haze
3:39 AM 71.6 °F - 64.4 °F 78% 30.01 in 0.8 mi Calm Calm - N/A   Haze
3:44 AM 69.8 °F - 64.4 °F 83% 30.00 in 2.0 mi Calm Calm - N/A   Haze
3:53 AM 69.1 °F - 64.0 °F 84% 29.99 in 0.8 mi Calm Calm - N/A   Haze
4:00 AM 69.8 °F - 64.4 °F 83% 30.00 in 2.0 mi Calm Calm - N/A   Haze
4:08 AM 69.8 °F - 64.4 °F 83% 29.99 in 6.0 mi Calm Calm - N/A   Haze
4:20 AM 69.8 °F - 64.4 °F 83% 29.99 in 6.0 mi Calm Calm - N/A   Haze
4:53 AM 69.1 °F - 63.0 °F 81% 29.98 in 6.0 mi Calm Calm - N/A   Haze
5:12 AM 69.8 °F - 64.4 °F 83% 29.99 in 1.8 mi Calm Calm - N/A   Haze
5:23 AM 69.8 °F - 64.4 °F 83% 29.99 in 0.8 mi Calm Calm - N/A   Haze
5:30 AM 69.8 °F - 64.4 °F 83% 29.99 in 1.0 mi Calm Calm - N/A   Haze
5:40 AM 69.8 °F - 64.4 °F 83% 30.00 in 3.0 mi Calm Calm - N/A   Haze
5:53 AM 71.1 °F - 64.9 °F 81% 29.99 in 4.0 mi Calm Calm - N/A   Haze
6:45 AM 71.6 °F - 64.4 °F 78% 30.00 in 9.0 mi Calm Calm - N/A   Mostly Cloudy
6:53 AM 71.1 °F - 64.9 °F 81% 29.99 in 8.0 mi Calm Calm - N/A   Mostly Cloudy
7:00 AM 71.6 °F - 64.4 °F 78% 30.00 in 6.0 mi Calm Calm - N/A   Haze
7:14 AM 71.6 °F - 66.2 °F 83% 30.00 in 5.0 mi Calm Calm - N/A   Haze
7:36 AM 73.4 °F - 68.0 °F 83% 30.00 in 1.8 mi WSW 3.5 mph - N/A   Haze
7:53 AM 75.0 °F - 70.0 °F 84% 29.99 in 3.0 mi Calm Calm - N/A   Haze
8:53 AM 77.0 °F - 71.1 °F 82% 30.01 in 7.0 mi Variable 4.6 mph - N/A   Overcast
9:40 AM 78.8 °F - 71.6 °F 78% 30.01 in 8.0 mi SSW 6.9 mph - N/A   Overcast
9:53 AM 79.0 °F - 71.1 °F 77% 30.01 in 9.0 mi SSW 6.9 mph - N/A   Overcast
10:53 AM 79.0 °F - 71.1 °F 77% 30.02 in 8.0 mi SW 5.8 mph - N/A   Overcast
11:53 AM 80.1 °F 83.8 °F 72.0 °F 76% 30.00 in 10.0 mi WSW 5.8 mph - N/A   Overcast
2:53 PM 75.2 °F - 71.6 °F 89% 29.96 in 10.0 mi WSW 8.1 mph - N/A   Mostly Cloudy
3:53 PM 73.4 °F - 71.6 °F 94% 29.96 in 6.0 mi WSW 5.8 mph - N/A   Mostly Cloudy
4:53 PM 73.4 °F - 71.6 °F 94% 29.96 in 6.0 mi West 3.5 mph - N/A   Mostly Cloudy
6:53 PM 71.6 °F - 69.8 °F 94% 29.95 in 10.0 mi SW 5.8 mph - N/A   Scattered Clouds
7:53 PM 71.6 °F - 69.8 °F 94% 29.93 in 10.0 mi SW 8.1 mph - N/A   Mostly Cloudy
9:55 PM 69.8 °F - 69.8 °F 100% 29.95 in 4.0 mi West 6.9 mph - N/A   Overcast
10:53 PM 69.8 °F - 69.8 °F 100% 29.96 in 5.0 mi WNW 5.8 mph - N/A   Overcast
11:53 PM 69.8 °F - 69.8 °F 100% 29.96 in 5.0 mi West 5.8 mph - N/A   Overcast